"Pseudo-MPEC" for P21vWhP

Created 2022 Aug 26 19:22:28 UT using Find_Orb

Click here for an explanation of pseudo-MPECs

 
 Astrometry: 
     P21vWhP* C2022 08 07+?oK)IWWg;UAsX#$m2,vAstrometryvX0.PLWQ;\ZKa=Nru;4P6aF52
     P21vWhP  C2022 08 07bmeUZL,V^pe4vklM,HcgM%^!wYqed-LUl\5rBkV80Dh!jp.8YOe^F52
     P21vWhP  C2022 08 07gA6redacted;!l!eS(k.t'CF#i;yF^U7T=)glIL3D46=SiEyRsu?F52
     P21vWhP aC2022 08 08.58498701 46 03.420-16 47 25.61   ~8A87 21.3 GWNEOCP568
     P21vWhP aC2022 08 08.58674301 46 03.320-16 47 25.15   ~8A87 21.4 GWNEOCP568
     P21vWhP aC2022 08 08.58851401 46 03.215-16 47 24.61   ~8A87 21.8 GWNEOCP568
     P21vWhP  C2022 08 25*duyv]sgkclick6pY\s_o=!*Sr]wr\Ok=$e!i:Ta6lZ#]pNpRGU!F51
     P21vWhP  C2022 08 25eV_r)CI!YRFPW1Q,aRut5kH,wI;R4L8aU5dVn=yNhP(n6idhd^X/F51
     P21vWhP  C2022 08 25``03lx_*9:?$JhAMgIoqQ=bt'*8@bhereGZZajnSforCS8\HW`ryF51
     P21vWhP  C2022 08 25[yf^H85e/G*GAGH!'cexplanationFO=i]U%+f@Wf!1,:YDOyx_)F51

Station data:
(568) Mauna Kea  (N19.826114 W155.472200)  US/Hawaii. 3.6-m
   Canada-France-Hawaii Telescope + CCD2.24-m University of Hawaii reflector.
(F51) Pan-STARRS 1, Haleakala  (N20.707234 W156.255910)  US/Hawaii.
   Observers J. Bulger, T. Lowe, A. Schultz, M. Willman. Measurers K.
   Chambers, S. Chastel, T. de Boer, L. Denneau, J. Fairlamb, H. Flewelling,
   M. Huber, C.-C. Lin, E. Magnier, Y. Ramanjooloo, R. Wainscoat, R. Weryk.
   1.8-m Ritchey-Chrétien + CCD.
(F52) Pan-STARRS 2, Haleakala  (N20.707382 W156.255910)  US/Hawaii.
   Observers J. Bulger, T. Dukes, T. Lowe, A. Schultz, M. Willman. Measurers
   K. Chambers, S. Chastel, T. de Boer, L. Denneau, J. Fairlamb, H.
   Flewelling, M. Huber, C.-C. Lin, E. Magnier, Y. Ramanjooloo, R. Wainscoat,
   R. Weryk. 1.8-m Ritchey-Chrétien + CCD.

Orbital elements:  P21vWhP
   Perihelion 2022 Oct 1.50341 +/- 7.91 TT = 12:04:54 (JD 2459854.00341)
Epoch 2022 Aug 25.0 TT = JDT 2459816.5   Ju: 0.1909           AutoNEOCP
M 355.25729214 +/- 0.8              (J2000 ecliptic)
n   0.12646071 +/- 0.00427          Peri.  354.21398 +/- 2.1
a   3.93096304 +/- 0.0884           Node     2.11898 +/- 0.07
e   0.3392234 +/- 0.0142            Incl.   74.94003 +/- 0.41
P   7.79                   H 17.2   G  0.15   U  9.1
q 2.59748835 +/- 0.00341    Q 5.26443773 +/- 0.174
From 10 observations 2022 Aug. 7-25; mean residual 0".08
Residuals in arcseconds: 
220807 F52  .00   .23+    220808 568  .02+  .02-    220825 F51  .05-  .04-    
220807 F52  .02-  .02-    220808 568  .04-  .03+    220825 F51  .01-  .01-    
220807 F52  .02+  .21-    220825 F51  .12+  .05+    
220808 568  .02+  .00     220825 F51  .05-  .00     

Ephemerides (geocentric):
Date (UTC) HH   RA             Dec           delta  r     elong  mag " sig PA
---- --------  ------------   ------------  ------ ------ -----  --- --------
2022 08 26 19  01 22 05.918   -15 16 25.25  1.7876 2.6069 135.6 21.4 .612 141
2022 08 26 20  01 22 01.593   -15 16 10.89  1.7871 2.6069 135.6 21.4 .635 141
2022 08 26 21  01 21 57.263   -15 15 56.52  1.7867 2.6069 135.7 21.4 .658 141
2022 08 26 22  01 21 52.928   -15 15 42.14  1.7862 2.6069 135.7 21.4 .682 141
2022 08 26 23  01 21 48.589   -15 15 27.74  1.7857 2.6069 135.8 21.4 .706 141
2022 08 27 00  01 21 44.245   -15 15 13.33  1.7853 2.6068 135.8 21.4 .729 141
2022 08 27 01  01 21 39.896   -15 14 58.91  1.7848 2.6068 135.9 21.4 .753 141
2022 08 27 02  01 21 35.542   -15 14 44.47  1.7844 2.6068 135.9 21.4 .778 140
2022 08 27 03  01 21 31.184   -15 14 30.02  1.7839 2.6068 136.0 21.4 .802 140
2022 08 27 04  01 21 26.821   -15 14 15.55  1.7834 2.6067 136.0 21.4 .827 140
2022 08 27 05  01 21 22.453   -15 14 01.07  1.7830 2.6067 136.1 21.4 .851 140
2022 08 27 06  01 21 18.081   -15 13 46.58  1.7825 2.6067 136.1 21.4 .876 140
2022 08 27 07  01 21 13.703   -15 13 32.08  1.7820 2.6067 136.2 21.4 .901 140
2022 08 27 08  01 21 09.321   -15 13 17.56  1.7816 2.6067 136.2 21.4 .926 140
2022 08 27 09  01 21 04.935   -15 13 03.03  1.7811 2.6066 136.3 21.4 .952 140
2022 08 27 10  01 21 00.543   -15 12 48.48  1.7807 2.6066 136.3 21.4 .977 139
2022 08 27 11  01 20 56.147   -15 12 33.92  1.7802 2.6066 136.4 21.4 1.00 139
2022 08 27 12  01 20 51.746   -15 12 19.35  1.7797 2.6066 136.4 21.4 1.03 139
2022 08 27 13  01 20 47.340   -15 12 04.76  1.7793 2.6066 136.5 21.4 1.06 139
2022 08 27 14  01 20 42.930   -15 11 50.16  1.7788 2.6065 136.5 21.4 1.08 139
2022 08 27 15  01 20 38.515   -15 11 35.55  1.7784 2.6065 136.6 21.4 1.11 139
2022 08 27 16  01 20 34.095   -15 11 20.92  1.7779 2.6065 136.6 21.4 1.13 139
2022 08 27 17  01 20 29.671   -15 11 06.28  1.7775 2.6065 136.7 21.4 1.16 139
2022 08 27 18  01 20 25.241   -15 10 51.62  1.7770 2.6064 136.7 21.4 1.19 139
2022 08 27 19  01 20 20.807   -15 10 36.95  1.7765 2.6064 136.8 21.4 1.22 138
2022 08 27 20  01 20 16.369   -15 10 22.27  1.7761 2.6064 136.8 21.4 1.24 138
2022 08 27 21  01 20 11.925   -15 10 07.57  1.7756 2.6064 136.9 21.4 1.27 138
2022 08 27 22  01 20 07.477   -15 09 52.86  1.7752 2.6064 136.9 21.4 1.30 138
2022 08 27 23  01 20 03.024   -15 09 38.14  1.7747 2.6063 137.0 21.4 1.33 138
2022 08 28 00  01 19 58.567   -15 09 23.40  1.7743 2.6063 137.1 21.4 1.36 138
2022 08 28 01  01 19 54.104   -15 09 08.64  1.7738 2.6063 137.1 21.4 1.38 138
2022 08 28 02  01 19 49.638   -15 08 53.87  1.7734 2.6063 137.2 21.4 1.41 138
2022 08 28 03  01 19 45.166   -15 08 39.09  1.7729 2.6063 137.2 21.4 1.44 138
2022 08 28 04  01 19 40.689   -15 08 24.30  1.7725 2.6062 137.3 21.4 1.47 137
2022 08 28 05  01 19 36.208   -15 08 09.49  1.7720 2.6062 137.3 21.4 1.50 137
2022 08 28 06  01 19 31.723   -15 07 54.66  1.7716 2.6062 137.4 21.4 1.53 137
2022 08 28 07  01 19 27.232   -15 07 39.82  1.7711 2.6062 137.4 21.4 1.56 137
2022 08 28 08  01 19 22.737   -15 07 24.97  1.7707 2.6062 137.5 21.4 1.59 137
2022 08 28 09  01 19 18.237   -15 07 10.10  1.7702 2.6061 137.5 21.4 1.62 137
2022 08 28 10  01 19 13.733   -15 06 55.22  1.7698 2.6061 137.6 21.4 1.65 137
2022 08 28 11  01 19 09.223   -15 06 40.32  1.7693 2.6061 137.6 21.4 1.68 137
2022 08 28 12  01 19 04.710   -15 06 25.41  1.7689 2.6061 137.7 21.4 1.71 137
2022 08 28 13  01 19 00.191   -15 06 10.48  1.7684 2.6060 137.7 21.4 1.74 137
2022 08 28 14  01 18 55.668   -15 05 55.54  1.7680 2.6060 137.8 21.4 1.77 137
2022 08 28 15  01 18 51.140   -15 05 40.59  1.7675 2.6060 137.8 21.4 1.80 136
2022 08 28 16  01 18 46.607   -15 05 25.62  1.7671 2.6060 137.9 21.4 1.83 136
2022 08 28 17  01 18 42.070   -15 05 10.64  1.7667 2.6060 137.9 21.4 1.86 136
2022 08 28 18  01 18 37.528   -15 04 55.64  1.7662 2.6059 138.0 21.4 1.90 136